Presure
158 196 204 185 206 168 173 218 192 177 187 206 240 195 87 89 167 179 137 193 133 146 180 191 173 182 196 149 179 181 180 176 168 176 132 104 183 137 155 165 168 165 176
188 204 186 190 168 202 206 188 242 202 239 224 203 157 177 159 167 90 85 83 213 219 180 115 191 184 192 185 176 182 135 189 177 188 178 159 183 176 181 157 156 177 167
163 198 202 189 168 179 174 179 156 179 245 247 226 224 257 283 276 215 217 119 91 207 97 94 94 134 115 183 210 184 186 176 186 181 182 182 180 162 169 178 187 167 159
203 175 172 162 185 211 219 206 190 225 189 182 200 222 193 300 283 255 217 211 218 228 99 96 96 97 94 194 108 88 173 171 170 173 180 183 168 166 184 179 179 174 181
182 213 198 160 172 175 178 172 167 174 203 204 195 188 191 212 254 163 214 230 228 200 208 226 214 214 145 146 90 122 157 139 167 137 137 90 90 144 154 167 185 189 134
202 155 156 194 203 194 191 206 213 209 197 173 180 247 245 295 216 272 208 230 238 246 225 188 223 220 220 209 202 193 198 178 200 169 187 93 161 150 159 172 110 118 95
165 195 188 171 154 201 196 219 207 192 224 225 235 205 280 323 306 271 195 198 206 239 235 210 234 223 217 206 206 208 201 194 209 199 194 184 96 135 103 97 133 104 152
182 187 190 158 211 208 197 220 212 211 233 234 229 280 309 310 309 285 280 205 233 202 232 234 225 221 214 231 238 219 203 200 198 197 201 199 199 191 191 196 183 117 179
189 178 176 185 207 199 206 197 216 202 226 221 228 280 305 253 313 281 273 259 254 230 235 236 225 230 203 251 229 218 230 211 209 199 198 193 194 196 198 193 197 187 199
170 173 187 199 196 205 202 212 209 208 199 225 228 274 311 320 306 280 260 266 252 268 248 235 227 232 228 217 238 246 255 245 192 210 188 193 201 202 197 197 196 193 194
167 203 193 193 196 183 203 218 204 208 234 231 285 323 316 316 303 275 265 268 254 186 254 249 230 226 223 237 230 234 238 244 257 234 217 202 195 195 202 197 195 198 195
180 184 194 191 197 208 182 211 202 210 228 246 312 328 316 315 299 279 275 263 259 241 280 249 231 220 233 221 211 218 246 231 236 237 241 231 221 212 200 199 195 194 192
180 180 180 175 176 202 212 181 215 222 231 260 335 310 316 307 288 281 283 255 248 287 285 224 224 222 215 223 218 216 210 235 246 238 233 234 229 229 228 213 205 213 206
189 190 150 187 190 204 189 209 230 232 257 345 318 317 309 297 280 284 273 278 239 290 274 270 276 232 228 215 220 208 205 215 230 238 244 250 247 238 222 209 197 191 215
198 191 190 177 190 204 210 224 229 267 354 327 315 308 295 290 277 277 274 266 276 275 270 270 262 258 253 236 258 234 206 207 254 241 239 241 240 241 244 246 244 228 211
184 191 191 184 203 205 222 228 264 354 327 310 305 295 286 277 282 274 268 270 265 267 269 264 255 248 250 231 211 227 207 236 247 255 253 236 248 232 245 247 243 234 244
194 191 192 203 208 214 231 241 377 351 325 304 295 287 281 273 275 267 266 262 257 264 265 264 263 251 265 255 235 206 239 217 251 247 242 241 229 244 244 245 235 174 239
189 193 207 216 218 218 229 347 362 337 310 302 292 286 276 274 270 267 264 255 265 257 260 261 259 260 254 252 200 254 244 232 256 245 251 246 241 243 231 235 229 233 156
196 209 218 215 234 243 248 378 356 319 305 293 293 285 277 266 266 259 263 256 261 252 260 279 260 255 262 256 251 261 251 262 239 239 237 252 248 234 229 230 227 164 241
210 213 217 229 242 266 393 368 338 316 297 291 282 282 274 265 261 258 261 253 254 256 266 255 258 256 273 256 257 245 253 241 244 253 247 243 241 246 244 241 241 249 241
214 228 230 246 263 363 375 349 325 295 298 280 281 279 264 264 261 260 254 260 256 261 257 251 248 252 264 258 258 252 260 251 255 243 236 235 241 242 243 238 239 240 243
224 240 245 256 341 368 350 331 309 298 282 284 277 273 266 263 258 258 255 255 257 258 252 251 251 267 264 270 271 261 254 250 260 245 245 244 243 245 241 246 253 252 247
252 245 278 371 365 346 331 317 303 288 280 277 268 274 269 265 256 256 255 259 262 256 255 256 261 267 268 266 264 264 265 264 256 255 257 257 261 259 258 262 258 256 261
250 355 363 356 333 320 315 303 293 287 283 277 272 270 265 263 258 258 257 260 261 261 266 266 266 269 271 274 274 274 274 275 275 277 275 271 272 270 266 262 264 268 266
327 364 346 347 328 296 307 300 290 280 276 268 267 264 260 261 261 263 260 265 257 264 263 265 270 275 271 267 267 267 264 263 262 261 262 262 259 259 257 260 265 259 258
372 345 343 328 304 311 296 293 283 281 278 269 268 262 265 270 263 261 266 255 265 265 267 268 269 272 275 275 273 266 264 261 259 259 260 260 262 264 266 281 282 280 280
Wind_Speed
47 41 14 34 19 49 51 33 54 61 60 62 53 72 56 59 67 77 67 86 68 69 81 84 78 78 81 71 77 79 79 79 77 73 59 50 77 67 75 72 71 69 71
32 32 41 41 48 22 32 53 45 51 41 56 68 74 60 66 73 64 53 55 90 86 77 58 85 84 86 84 81 84 67 83 82 78 80 81 73 74 76 79 77 78 77
45 27 43 45 49 57 58 59 69 62 60 53 60 66 48 52 68 81 85 76 67 86 56 56 56 66 63 81 84 83 86 85 83 80 80 79 78 82 81 79 79 76 79
42 62 62 50 67 52 53 55 69 56 66 72 76 69 77 51 63 75 83 82 81 90 56 56 64 62 57 85 63 55 80 80 88 86 84 81 85 85 81 80 82 84 83
46 63 49 57 69 70 73 69 64 72 64 67 79 77 79 78 62 80 77 80 83 82 81 91 88 84 70 76 57 67 80 73 85 75 73 56 54 72 81 85 84 84 70
61 57 60 66 56 59 71 66 59 63 74 73 74 68 62 58 85 64 72 82 82 84 81 79 88 89 86 85 84 86 86 81 90 94 91 60 91 87 93 78 63 66 57
59 54 58 73 64 60 63 82 66 74 77 71 73 81 65 61 62 69 79 74 67 85 85 80 86 89 90 87 86 87 87 89 90 94 94 96 63 75 64 61 77 65 85
63 61 71 72 77 74 67 90 77 75 98 91 78 77 57 58 64 63 70 76 83 69 85 89 82 82 84 90 93 92 91 91 92 93 94 94 96 97 96 96 96 72 97
69 71 71 70 83 72 81 78 92 75 94 89 85 77 60 67 62 65 67 79 84 88 89 90 84 86 80 83 91 91 96 97 99 98 97 97 98 99 99 99 98 98 94
71 70 72 82 78 91 88 94 93 87 76 95 89 80 61 63 62 65 67 72 82 81 93 90 86 85 84 82 85 85 85 96 97 102 95 97 99 101 100 99 101 99 99
74 87 80 81 86 78 95 107 92 94 111 106 90 61 60 60 60 63 67 70 75 80 86 90 91 87 80 88 81 81 82 82 92 101 105 103 102 102 103 102 102 101 99
78 79 87 85 95 107 87 107 97 105 113 111 73 58 58 56 58 61 65 69 72 82 70 88 92 82 91 84 78 80 95 83 82 86 87 98 102 107 106 105 105 102 103
86 84 85 83 84 109 118 87 117 115 113 104 56 55 54 53 55 58 59 68 71 63 71 81 86 86 77 83 82 81 78 84 89 90 85 87 92 93 96 107 109 101 106
99 96 65 96 100 115 97 113 124 118 115 54 52 51 51 51 56 56 60 58 69 61 64 69 70 95 95 83 84 78 80 79 82 89 89 89 92 90 96 108 105 101 105
103 101 102 92 107 120 119 128 125 112 52 50 48 48 49 50 53 55 57 61 58 61 64 67 71 74 76 87 77 79 80 79 85 82 83 86 88 89 89 89 88 100 102
99 106 107 103 119 121 129 123 117 57 52 49 46 46 46 49 51 54 56 56 55 60 62 69 72 77 82 88 78 85 78 80 78 80 84 84 82 82 84 82 77 79 77
111 110 111 118 122 120 127 126 46 52 48 47 44 45 46 49 51 54 54 57 56 59 63 66 67 69 69 75 82 74 77 76 76 80 79 82 82 80 77 74 77 65 75
112 114 121 127 129 124 121 67 48 51 49 45 46 45 48 48 51 53 54 54 56 58 62 64 64 63 67 69 74 74 75 76 74 72 77 81 78 76 76 76 79 80 61
117 121 127 127 129 124 117 47 47 46 48 45 47 46 47 48 51 52 52 52 55 58 61 62 63 65 67 68 72 73 73 74 76 76 76 74 80 80 78 79 80 65 82
123 129 130 131 124 117 43 44 42 44 44 48 47 46 44 48 50 52 51 52 54 56 60 59 59 60 63 66 73 71 74 75 75 74 78 78 77 76 80 82 83 83 80
131 135 133 133 123 51 38 39 40 41 46 43 44 40 43 48 51 52 50 51 52 53 55 57 57 59 62 64 66 69 69 72 73 76 74 75 79 81 81 82 81 83 84
131 130 127 122 67 35 36 36 38 40 43 44 43 40 44 49 49 49 49 50 52 50 52 54 56 59 61 61 66 69 70 68 73 74 75 79 79 81 81 83 87 91 91
136 130 116 45 37 34 34 35 37 40 43 44 42 42 42 46 50 51 49 49 49 49 50 52 53 54 56 58 60 62 65 68 70 72 75 78 78 79 79 77 79 81 82
131 68 49 43 42 37 36 36 37 40 41 40 40 42 43 46 49 49 49 47 47 46 46 46 49 50 52 53 55 56 57 59 61 63 65 67 68 69 69 72 73 72 73
79 48 47 41 38 37 37 38 39 42 42 42 41 42 44 46 46 46 45 45 42 42 42 45 46 46 47 47 47 48 50 52 54 56 58 59 60 61 64 66 67 68 70
46 48 41 39 36 36 37 39 41 44 42 42 43 43 43 45 42 42 41 39 40 40 42 43 43 42 43 45 47 49 51 52 54 56 57 58 59 61 64 65 64 64 65
Wind_Direction
265 315 279 283 296 266 265 287 262 259 259 265 273 263 267 267 258 261 262 259 260 259 259 260 254 256 256 258 259 259 259 257 255 256 256 255 261 261 264 263 265 267 268
268 309 283 276 270 270 289 269 328 264 303 272 262 264 269 261 261 265 263 265 260 257 255 256 257 257 256 255 255 258 259 259 257 258 256 258 258 261 263 264 265 266 265
287 303 312 285 278 287 280 284 267 276 326 315 270 271 290 276 262 259 258 260 267 262 262 261 259 255 256 255 254 254 257 256 260 258 258 258 257 257 257 259 262 264 266
318 280 283 278 274 317 312 283 280 314 269 281 276 268 268 274 260 256 259 259 259 258 257 262 266 264 258 255 257 260 255 256 255 254 256 257 254 257 259 260 259 260 262
283 335 279 288 285 285 282 286 287 286 302 295 272 279 278 267 261 261 260 259 255 255 255 255 257 254 255 257 256 259 257 253 255 257 255 253 254 258 262 260 260 259 259
327 292 291 313 304 302 272 290 303 300 290 282 278 306 291 276 266 255 265 259 259 257 254 251 254 254 253 251 252 252 253 255 254 253 256 257 255 259 259 257 258 259 259
302 308 275 275 288 294 283 322 292 270 315 311 315 280 303 271 263 260 265 261 256 257 256 250 252 252 251 254 253 253 252 253 253 254 256 258 260 259 254 261 261 264 266
305 299 300 287 319 316 295 321 311 304 320 319 315 307 287 273 263 255 250 254 253 255 255 257 253 252 252 249 250 249 252 253 254 254 253 255 257 259 260 260 256 258 260
308 297 298 302 318 307 313 303 318 298 318 314 313 306 286 275 264 255 251 246 245 250 252 254 253 255 249 248 251 249 250 250 251 252 253 255 256 257 257 259 260 259 261
283 284 305 316 309 316 316 316 314 309 298 313 312 304 282 276 265 254 251 248 246 247 248 252 252 253 252 251 250 250 252 248 248 251 251 254 255 256 257 258 259 260 262
288 317 310 311 311 293 314 318 310 310 316 313 310 288 281 274 264 253 252 249 245 246 245 247 252 253 253 255 255 252 253 253 251 250 252 252 253 255 257 257 260 260 262
305 307 313 310 315 318 304 316 309 311 314 314 299 282 279 272 264 254 252 248 246 244 243 245 250 251 253 254 251 254 258 257 254 252 251 250 251 252 254 256 258 260 261
307 305 303 307 306 315 315 301 313 313 312 311 281 283 273 266 259 256 254 248 248 248 243 246 248 250 250 253 253 252 251 256 257 260 260 259 251 252 253 253 254 256 259
310 312 293 309 310 315 305 312 314 313 311 282 282 274 267 261 256 253 250 250 249 246 244 241 241 248 250 251 252 248 249 255 260 257 258 256 260 262 249 252 256 257 258
312 311 310 298 309 313 316 316 314 312 285 281 275 268 263 256 254 252 252 251 249 244 241 238 241 240 243 249 248 250 252 254 252 256 254 256 258 258 259 261 264 258 259
309 309 308 305 310 311 314 314 311 290 281 278 269 263 257 254 250 249 250 251 249 245 242 240 240 244 246 249 249 252 253 256 255 252 251 257 254 259 256 259 261 261 260
308 308 306 308 310 313 314 313 282 274 269 268 262 258 254 250 247 248 248 248 248 246 240 240 242 245 245 246 250 251 255 260 254 253 254 253 260 255 258 258 258 263 259
305 304 308 311 311 311 312 296 277 268 266 260 256 253 251 250 249 247 247 249 249 247 245 242 242 243 244 247 251 251 254 260 254 254 254 254 255 256 256 258 258 258 262
302 306 308 310 311 312 313 271 265 262 259 259 252 250 246 248 247 249 249 248 246 248 247 246 245 245 244 246 250 252 253 255 257 260 261 260 257 260 261 261 261 263 265
306 307 309 312 312 312 270 264 257 252 254 253 254 251 246 247 247 249 247 247 248 249 245 247 247 251 249 249 250 255 255 257 258 258 259 262 263 263 263 265 267 267 266
307 308 308 312 312 292 267 259 254 255 247 256 256 246 243 244 246 248 250 252 251 249 249 250 252 252 252 252 254 256 257 256 256 258 262 265 265 265 265 267 267 267 269
308 309 310 310 299 273 264 255 249 243 252 253 250 245 241 243 247 248 250 250 250 247 248 250 252 252 253 253 253 254 256 257 257 259 261 263 266 266 266 266 266 267 269
310 310 308 290 277 266 257 249 242 243 244 244 246 247 245 243 246 247 249 251 250 249 250 252 253 253 254 256 256 256 256 257 258 260 261 262 264 266 267 267 268 269 269
308 296 288 283 277 271 256 247 242 242 245 247 244 244 244 243 245 248 250 251 251 252 253 255 257 255 255 256 257 258 259 260 261 262 262 264 265 265 265 266 267 268 270
301 285 283 275 269 274 250 243 239 242 239 239 240 240 242 244 246 248 252 254 255 257 257 258 259 257 255 256 257 259 261 262 262 263 264 264 265 266 267 269 270 271 273
284 283 277 273 268 254 247 239 241 240 237 238 240 243 246 245 248 250 251 254 256 256 258 257 258 259 259 259 260 260 261 262 263 264 266 267 268 270 271 272 272 273 273